| time (UTC) | temp F | wind direction | speed knots | gust knots | rain 1hr in | rain 24hr in | rain mn in | humidity % | barometer mb |
| 20260504140503 | 58 | 0 | 0.0 | 0.9 | 0.00 | 0.00 | 0.00 | 56 | 1008.8 |
| 20260504130504 | 57 | 274 | 0.9 | 0.9 | 0.00 | 0.00 | 0.00 | 58 | 1008.4 |
| 20260504110504 | 59 | 0 | 0.0 | 0.9 | 0.00 | 0.00 | 0.00 | 57 | 1008.4 |
| 20260504081505 | 62 | 273 | 0.9 | 1.7 | 0.00 | 0.00 | 0.00 | 54 | 1008.0 |
| 20260504081004 | 62 | 273 | 0.9 | 1.7 | 0.00 | 0.00 | 0.00 | 54 | 1008.0 |
| 20260504080504 | 62 | 273 | 0.9 | 1.7 | 0.00 | 0.00 | 0.00 | 54 | 1008.0 |
| 20260504050504 | 65 | 263 | 0.9 | 1.7 | 0.00 | 0.00 | 0.00 | 48 | 1007.7 |
| 20260504050004 | 65 | 263 | 0.9 | 1.7 | 0.00 | 0.00 | 0.00 | 49 | 1007.8 |
| 20260504045503 | 65 | 262 | 0.9 | 1.7 | 0.00 | 0.00 | 0.00 | 49 | 1007.8 |
| 20260504044505 | 66 | 262 | 0.9 | 1.7 | 0.00 | 0.00 | 0.00 | 51 | 1007.8 |
| 20260504043004 | 66 | 263 | 0.9 | 2.6 | 0.00 | 0.00 | 0.00 | 49 | 1007.7 |
| 20260504042504 | 66 | 263 | 0.9 | 1.7 | 0.00 | 0.00 | 0.00 | 47 | 1007.8 |
| 20260504042004 | 66 | 263 | 0.9 | 1.7 | 0.00 | 0.00 | 0.00 | 48 | 1007.8 |
| 20260504041004 | 67 | 263 | 0.9 | 1.7 | 0.00 | 0.00 | 0.00 | 48 | 1007.8 |
| 20260504040504 | 67 | 262 | 0.9 | 1.7 | 0.00 | 0.00 | 0.00 | 48 | 1007.8 |
| 20260504040004 | 67 | 263 | 0.9 | 1.7 | 0.00 | 0.00 | 0.00 | 49 | 1007.9 |
| 20260504035504 | 67 | 263 | 0.9 | 1.7 | 0.00 | 0.00 | 0.00 | 49 | 1007.9 |
| 20260504035003 | 68 | 262 | 0.9 | 1.7 | 0.00 | 0.00 | 0.00 | 49 | 1007.8 |
| 20260504034504 | 68 | 263 | 0.9 | 1.7 | 0.00 | 0.00 | 0.00 | 49 | 1007.8 |
| 20260504034004 | 68 | 262 | 0.9 | 1.7 | 0.00 | 0.00 | 0.00 | 49 | 1007.8 |
| 20260504033504 | 69 | 262 | 0.9 | 1.7 | 0.00 | 0.00 | 0.00 | 50 | 1007.7 |
| 20260504032503 | 69 | 263 | 0.9 | 1.7 | 0.00 | 0.00 | 0.00 | 49 | 1007.7 |
| 20260504032003 | 69 | 263 | 0.9 | 1.7 | 0.00 | 0.00 | 0.00 | 49 | 1007.8 |
| 20260504031504 | 70 | 263 | 0.9 | 1.7 | 0.00 | 0.00 | 0.00 | 48 | 1007.8 |
| 20260504031004 | 70 | 263 | 0.9 | 1.7 | 0.00 | 0.00 | 0.00 | 48 | 1007.8 |
| 20260504030504 | 70 | 263 | 0.9 | 1.7 | 0.00 | 0.00 | 0.00 | 47 | 1007.9 |
| 20260504030004 | 71 | 263 | 0.9 | 1.7 | 0.00 | 0.00 | 0.00 | 47 | 1007.9 |
| 20260504025503 | 71 | 263 | 0.9 | 1.7 | 0.00 | 0.00 | 0.00 | 48 | 1007.9 |
| 20260504025003 | 71 | 263 | 0.9 | 1.7 | 0.00 | 0.00 | 0.00 | 47 | 1007.9 |
| 20260504024004 | 72 | 263 | 0.9 | 0.9 | 0.00 | 0.00 | 0.00 | 47 | 1007.9 |
| 20260504023504 | 73 | 263 | 0.9 | 0.9 | 0.00 | 0.00 | 0.00 | 49 | 1007.9 |
| 20260504023004 | 73 | 263 | 0.9 | 1.7 | 0.00 | 0.00 | 0.00 | 46 | 1007.9 |
| 20260504022504 | 74 | 0 | 0.0 | 1.7 | 0.00 | 0.00 | 0.00 | 46 | 1008.0 |
| 20260504022003 | 74 | 0 | 0.0 | 0.9 | 0.00 | 0.00 | 0.00 | 48 | 1008.0 |
| 20260504021504 | 74 | 263 | 0.9 | 0.9 | 0.00 | 0.00 | 0.00 | 48 | 1008.0 |
| 20260504020504 | 75 | 0 | 0.0 | 1.7 | 0.00 | 0.00 | 0.00 | 49 | 1008.0 |
| 20260504015003 | 76 | 0 | 0.0 | 0.0 | 0.00 | 0.00 | 0.00 | 44 | 1008.1 |
| 20260504014504 | 77 | 0 | 0.0 | 0.0 | 0.00 | 0.00 | 0.00 | 43 | 1008.1 |
| 20260504014003 | 77 | 0 | 0.0 | 0.9 | 0.00 | 0.00 | 0.00 | 42 | 1008.2 |
| 20260504013503 | 78 | 0 | 0.0 | 0.9 | 0.00 | 0.00 | 0.00 | 41 | 1008.3 |
| 20260504013005 | 78 | 0 | 0.0 | 0.9 | 0.00 | 0.00 | 0.00 | 40 | 1008.3 |
| 20260504012004 | 79 | 0 | 0.0 | 1.7 | 0.00 | 0.00 | 0.00 | 39 | 1008.4 |
| 20260504011504 | 79 | 0 | 0.0 | 1.7 | 0.00 | 0.00 | 0.00 | 40 | 1008.4 |
| 20260504011004 | 80 | 260 | 0.9 | 1.7 | 0.00 | 0.00 | 0.00 | 40 | 1008.5 |
| 20260504010503 | 80 | 238 | 0.9 | 2.6 | 0.00 | 0.00 | 0.00 | 38 | 1008.6 |
| 20260504010004 | 81 | 211 | 0.9 | 4.3 | 0.00 | 0.00 | 0.00 | 34 | 1008.6 |
| 20260504005004 | 80 | 186 | 0.9 | 3.5 | 0.00 | 0.00 | 0.00 | 35 | 1008.7 |
| 20260504004504 | 80 | 173 | 0.9 | 5.2 | 0.00 | 0.00 | 0.00 | 38 | 1008.8 |
| 20260504003503 | 80 | 73 | 0.9 | 2.6 | 0.00 | 0.00 | 0.00 | 38 | 1008.9 |
| 20260504002504 | 81 | 230 | 0.9 | 2.6 | 0.00 | 0.00 | 0.00 | 36 | 1009.0 |
| 20260504002004 | 81 | 219 | 0.9 | 2.6 | 0.00 | 0.00 | 0.00 | 33 | 1009.0 |
| 20260504001504 | 81 | 184 | 0.9 | 1.7 | 0.00 | 0.00 | 0.00 | 35 | 1009.1 |
| 20260504001003 | 82 | 214 | 0.9 | 4.3 | 0.00 | 0.00 | 0.00 | 35 | 1009.1 |
| 20260504000004 | 83 | 164 | 1.7 | 3.5 | 0.00 | 0.00 | 0.00 | 31 | 1009.2 |
| 20260503235504 | 83 | 246 | 1.7 | 3.5 | 0.00 | 0.00 | 0.00 | 32 | 1009.2 |
| 20260503234504 | 82 | 171 | 1.7 | 4.3 | 0.00 | 0.00 | 0.00 | 32 | 1009.4 |
| 20260503234004 | 82 | 149 | 1.7 | 4.3 | 0.00 | 0.00 | 0.00 | 32 | 1009.4 |
| 20260503233504 | 81 | 192 | 1.7 | 4.3 | 0.00 | 0.00 | 0.00 | 32 | 1009.4 |
| 20260503233004 | 82 | 215 | 1.7 | 3.5 | 0.00 | 0.00 | 0.00 | 32 | 1009.5 |
| 20260503232504 | 81 | 213 | 1.7 | 6.1 | 0.00 | 0.00 | 0.00 | 33 | 1009.6 |
| 20260503231503 | 81 | 176 | 1.7 | 5.2 | 0.00 | 0.00 | 0.00 | 35 | 1009.7 |
| 20260503231003 | 80 | 189 | 1.7 | 4.3 | 0.00 | 0.00 | 0.00 | 36 | 1009.8 |
| 20260503230503 | 81 | 192 | 1.7 | 6.1 | 0.00 | 0.00 | 0.00 | 35 | 1009.8 |
| 20260503225503 | 80 | 254 | 1.7 | 7.8 | 0.00 | 0.00 | 0.00 | 34 | 1010.0 |
| 20260503225003 | 81 | 206 | 2.6 | 7.8 | 0.00 | 0.00 | 0.00 | 33 | 1010.1 |
| 20260503224504 | 79 | 190 | 2.6 | 5.2 | 0.00 | 0.00 | 0.00 | 34 | 1010.1 |
| 20260503224003 | 80 | 216 | 2.6 | 5.2 | 0.00 | 0.00 | 0.00 | 34 | 1010.2 |
| 20260503223504 | 80 | 195 | 1.7 | 5.2 | 0.00 | 0.00 | 0.00 | 34 | 1010.2 |
| 20260503223004 | 80 | 181 | 1.7 | 7.0 | 0.00 | 0.00 | 0.00 | 35 | 1010.4 |
| 20260503222504 | 80 | 177 | 2.6 | 7.0 | 0.00 | 0.00 | 0.00 | 36 | 1010.4 |
| 20260503222004 | 79 | 177 | 2.6 | 7.8 | 0.00 | 0.00 | 0.00 | 35 | 1010.4 |
| 20260503221504 | 79 | 182 | 2.6 | 7.8 | 0.00 | 0.00 | 0.00 | 35 | 1010.5 |
| 20260503220504 | 79 | 157 | 2.6 | 7.0 | 0.00 | 0.00 | 0.00 | 37 | 1010.7 |
| 20260503220004 | 78 | 153 | 2.6 | 7.0 | 0.00 | 0.00 | 0.00 | 36 | 1010.7 |
| 20260503215503 | 80 | 179 | 1.7 | 5.2 | 0.00 | 0.00 | 0.00 | 36 | 1010.8 |
| 20260503215003 | 80 | 204 | 2.6 | 6.1 | 0.00 | 0.00 | 0.00 | 36 | 1010.9 |
| 20260503214504 | 79 | 202 | 2.6 | 7.8 | 0.00 | 0.00 | 0.00 | 35 | 1010.9 |
| 20260503214004 | 80 | 212 | 2.6 | 7.8 | 0.00 | 0.00 | 0.00 | 33 | 1011.0 |
| 20260503212504 | 79 | 221 | 2.6 | 7.0 | 0.00 | 0.00 | 0.00 | 37 | 1011.1 |
| 20260503212004 | 79 | 204 | 2.6 | 7.0 | 0.00 | 0.00 | 0.00 | 37 | 1011.1 |
| 20260503211504 | 78 | 211 | 1.7 | 7.0 | 0.00 | 0.00 | 0.00 | 37 | 1011.1 |
| 20260503211004 | 79 | 203 | 1.7 | 6.1 | 0.00 | 0.00 | 0.00 | 39 | 1011.2 |
| 20260503210004 | 77 | 162 | 2.6 | 7.8 | 0.00 | 0.00 | 0.00 | 42 | 1011.3 |
| 20260503204503 | 76 | 168 | 2.6 | 7.0 | 0.00 | 0.00 | 0.00 | 42 | 1011.5 |
| 20260503204003 | 77 | 175 | 2.6 | 7.8 | 0.00 | 0.00 | 0.00 | 40 | 1011.6 |
| 20260503203503 | 76 | 171 | 2.6 | 7.8 | 0.00 | 0.00 | 0.00 | 41 | 1011.6 |
| 20260503203005 | 76 | 167 | 2.6 | 7.8 | 0.00 | 0.00 | 0.00 | 41 | 1011.7 |
| 20260503202004 | 76 | 163 | 2.6 | 6.1 | 0.00 | 0.00 | 0.00 | 45 | 1011.8 |
| 20260503201504 | 76 | 165 | 2.6 | 6.1 | 0.00 | 0.00 | 0.00 | 45 | 1011.8 |
| 20260503201004 | 75 | 157 | 2.6 | 6.1 | 0.00 | 0.00 | 0.00 | 45 | 1011.9 |
| 20260503200004 | 76 | 196 | 2.6 | 7.8 | 0.00 | 0.00 | 0.00 | 44 | 1012.1 |
| 20260503195504 | 77 | 214 | 1.7 | 7.8 | 0.00 | 0.00 | 0.00 | 43 | 1012.2 |
| 20260503195004 | 76 | 168 | 2.6 | 7.8 | 0.00 | 0.00 | 0.00 | 46 | 1012.2 |
| 20260503194504 | 74 | 152 | 2.6 | 7.8 | 0.00 | 0.00 | 0.00 | 48 | 1012.2 |
| 20260503194003 | 74 | 148 | 2.6 | 6.1 | 0.00 | 0.00 | 0.00 | 47 | 1012.3 |
| 20260503193004 | 74 | 155 | 2.6 | 7.0 | 0.00 | 0.00 | 0.00 | 46 | 1012.4 |
| 20260503191504 | 74 | 150 | 2.6 | 7.0 | 0.00 | 0.00 | 0.00 | 46 | 1012.5 |
| 20260503191004 | 75 | 152 | 1.7 | 5.2 | 0.00 | 0.00 | 0.00 | 46 | 1012.6 |
| 20260503190504 | 74 | 154 | 2.6 | 5.2 | 0.00 | 0.00 | 0.00 | 46 | 1012.8 |
| 20260503190004 | 74 | 147 | 1.7 | 5.2 | 0.00 | 0.00 | 0.00 | 47 | 1012.8 |
| 20260503185503 | 74 | 155 | 1.7 | 4.3 | 0.00 | 0.00 | 0.00 | 45 | 1012.8 |
| 20260503185003 | 74 | 153 | 1.7 | 5.2 | 0.00 | 0.00 | 0.00 | 45 | 1012.9 |
| 20260503184504 | 73 | 144 | 1.7 | 7.0 | 0.00 | 0.00 | 0.00 | 47 | 1012.8 |
| 20260503184004 | 73 | 152 | 2.6 | 7.0 | 0.00 | 0.00 | 0.00 | 47 | 1012.9 |
| 20260503183504 | 73 | 159 | 1.7 | 5.2 | 0.00 | 0.00 | 0.00 | 46 | 1012.9 |
| 20260503183004 | 73 | 165 | 1.7 | 5.2 | 0.00 | 0.00 | 0.00 | 46 | 1012.9 |
| 20260503182005 | 74 | 196 | 1.7 | 5.2 | 0.00 | 0.00 | 0.00 | 46 | 1012.9 |
| 20260503181505 | 72 | 164 | 1.7 | 5.2 | 0.00 | 0.00 | 0.00 | 47 | 1012.9 |
| 20260503181003 | 72 | 188 | 1.7 | 3.5 | 0.00 | 0.00 | 0.00 | 47 | 1013.0 |
| 20260503180503 | 73 | 188 | 1.7 | 4.3 | 0.00 | 0.00 | 0.00 | 47 | 1012.9 |
| 20260503180005 | 71 | 167 | 1.7 | 5.2 | 0.00 | 0.00 | 0.00 | 47 | 1013.0 |
| 20260503175504 | 71 | 171 | 1.7 | 5.2 | 0.00 | 0.00 | 0.00 | 48 | 1013.1 |
| 20260503175004 | 71 | 179 | 2.6 | 5.2 | 0.00 | 0.00 | 0.00 | 47 | 1013.1 |
| 20260503174504 | 71 | 181 | 1.7 | 5.2 | 0.00 | 0.00 | 0.00 | 46 | 1013.1 |
| 20260503174003 | 71 | 175 | 1.7 | 4.3 | 0.00 | 0.00 | 0.00 | 46 | 1013.1 |
| 20260503173503 | 70 | 171 | 1.7 | 5.2 | 0.00 | 0.00 | 0.00 | 44 | 1013.1 |
| 20260503173004 | 70 | 172 | 1.7 | 5.2 | 0.00 | 0.00 | 0.00 | 44 | 1013.1 |
| 20260503172504 | 70 | 168 | 1.7 | 4.3 | 0.00 | 0.00 | 0.00 | 45 | 1013.2 |
| 20260503172004 | 70 | 161 | 1.7 | 3.5 | 0.00 | 0.00 | 0.00 | 45 | 1013.2 |
| 20260503171503 | 69 | 151 | 1.7 | 3.5 | 0.00 | 0.00 | 0.00 | 46 | 1013.3 |
| 20260503171004 | 69 | 154 | 1.7 | 3.5 | 0.00 | 0.00 | 0.00 | 47 | 1013.3 |
| 20260503170503 | 69 | 156 | 1.7 | 3.5 | 0.00 | 0.00 | 0.00 | 47 | 1013.3 |
| 20260503150503 | 58 | 0 | 0.0 | 0.9 | 0.00 | 0.00 | 0.00 | 54 | 1014.0 |